Weather History for Willimantic, CT

Change the Weather History Date:

Sunday, September 9, 2012

  Actual Average Record
Temperature  
Mean Temperature 68 °F -  
Max Temperature 75 °F 75 °F 89 °F (1985)
Min Temperature 60 °F 49 °F 35 °F (1990)
Cooling Degree Days 2    
Growing Degree Days 18 (Base 50)    
Moisture  
Dew Point 55 °F    
Average Humidity 71    
Maximum Humidity 87    
Minimum Humidity 38    
Precipitation  
Precipitation 0.03 in - - ()
Sea Level Pressure  
Sea Level Pressure 29.82 in    
Wind  
Wind Speed 2 mph (NW)    
Max Wind Speed 7 mph    
Max Gust Speed -    
Visibility 10 miles    
Events Rain    
Averages and records for this station are not official NWS values.
T = Trace of Precipitation, MM = Missing Value Source: NWS Daily Summary

Daily Weather History Graph

Daily Weather History Graph

Search for Another Location

Airport:

Trip Planner

Search our weather history database for the weather conditions in past years. The results will help you decide how hot, cold, wet, or windy it might be!

Date:

Astronomy

Sep. 09, 2012 Rise Set
Actual Time 6:23 AM EDT 7:07 PM EDT
Civil Twilight 5:55 AM EDT 7:35 PM EDT
Nautical Twilight 5:21 AM EDT 8:09 PM EDT
Astronomical Twilight 4:47 AM EDT 8:43 PM EDT
Moon No Moon Rise 2:54 PM EDT (9/9)
Length of Visible Light 13h 40m
Length of Day
12h 44m
Last Quarter, 39% of the Moon is Illuminated
Sep 9
Last Quarter
Sep 15
New
Sep 22
First Quarter
Sep 29
Full
Oct 8
Last Quarter

Hourly Weather History & Observations

Time (EDT) Temp. Dew Point Humidity Pressure Visibility Wind Dir Wind Speed Gust Speed Precip Events Conditions
12:52 AM 64.0 °F 60.1 °F 87% 29.76 in 10.0 mi Calm Calm - 0.00 in   Overcast
1:52 AM 64.0 °F 59.0 °F 84% 29.77 in 10.0 mi SW 3.5 mph - 0.01 in Rain Light Rain
2:52 AM 64.0 °F 57.9 °F 80% 29.75 in 10.0 mi Calm Calm - 0.01 in Rain Light Rain
3:52 AM 63.0 °F 57.9 °F 84% 29.76 in 10.0 mi NW 3.5 mph - 0.00 in Rain Light Rain
4:52 AM 63.0 °F 57.9 °F 84% 29.78 in 10.0 mi Calm Calm - 0.00 in   Clear
5:52 AM 63.0 °F 57.9 °F 84% 29.80 in 10.0 mi Calm Calm - N/A   Clear
6:52 AM 62.1 °F 57.0 °F 84% 29.82 in 10.0 mi NNW 3.5 mph - N/A   Scattered Clouds
7:52 AM 62.1 °F 55.0 °F 78% 29.83 in 10.0 mi West 3.5 mph - N/A   Scattered Clouds
8:52 AM 62.1 °F 55.0 °F 78% 29.85 in 10.0 mi Calm Calm - N/A   Partly Cloudy
9:52 AM 64.0 °F 55.0 °F 73% 29.86 in 10.0 mi NW 5.8 mph - N/A   Clear
10:52 AM 66.9 °F 55.0 °F 66% 29.86 in 10.0 mi Calm Calm - N/A   Clear
11:52 AM 69.1 °F 54.0 °F 58% 29.86 in 10.0 mi Calm Calm - N/A   Clear
12:52 PM 70.0 °F 52.0 °F 53% 29.85 in 10.0 mi NNW 4.6 mph - N/A   Clear
1:52 PM 73.9 °F 50.0 °F 43% 29.82 in 10.0 mi North 6.9 mph - N/A   Clear
2:52 PM 75.0 °F 50.0 °F 41% 29.80 in 10.0 mi NNW 3.5 mph - N/A   Clear
3:52 PM 75.9 °F 48.9 °F 38% 29.81 in 10.0 mi NNW 6.9 mph - N/A   Clear
4:52 PM 75.9 °F 52.0 °F 43% 29.79 in 10.0 mi NNW 5.8 mph - N/A   Clear
5:52 PM 75.0 °F 54.0 °F 48% 29.80 in 10.0 mi Calm Calm - N/A   Clear
6:52 PM 70.0 °F 57.9 °F 65% 29.81 in 10.0 mi NNW 3.5 mph - N/A   Clear
7:52 PM 64.0 °F 57.9 °F 80% 29.83 in 10.0 mi Calm Calm - N/A   Clear
8:52 PM 62.1 °F 57.9 °F 86% 29.84 in 10.0 mi Calm Calm - N/A   Clear
9:52 PM 61.0 °F 57.0 °F 87% 29.85 in 10.0 mi NNW 3.5 mph - N/A   Clear
10:52 PM 60.1 °F 55.9 °F 86% 29.86 in 10.0 mi North 3.5 mph - N/A   Mostly Cloudy
11:52 PM 60.1 °F 55.9 °F 86% 29.87 in 10.0 mi Calm Calm - 0.01 in   Mostly Cloudy